STARLINK-32354, 61932

Orbit data source: Space-Track

STARLINK-32354, 61932 is a payload satellite owned by SpaceX/Seattle (US) in LEO that was launched on Mon, 11 Nov 2024 UTC via an FALCON 9 launch vehicle from the Air Force Eastern Test Range (AFETR). Payloads include a variety of satellites, spacecraft, and rockets equipped with specific instruments for various scientific and technological missions. These include communications satellites like Starlink; space stations such as the ISS; scientific satellites like the Hubble; Earth observation satellites from companies like Planet Labs, Umbra, and HawkEye 360; GPS; miniature CubeSats for education and research; and military/defense satellites.

Loading next visibility...
STARLINK-32354 details
Identifier
61932, 2024-207W
Orbit
LEO
Last TLE update8 hours ago
Origin
Flag of USSpaceX/Seattle (US)
ManufacturerSpaceX/Seattle
MissionOperational spacecraft
Bus & MotorSTARLINK V2M, Unknown motor
Mass730 kg wet, ~700 kg dry
Launch date (UTC)
2024-11-11 (1 week ago)
Launch vehicle
FALCON 9
Launch site
Air Force Eastern Test Range (AFETR)
Object type
Payload
Rocket body
Debris
Shape & HBRUnknown
Radar Cross SectionRCS unknown

Expand to show TLE details & history

TLE from 8 hours ago
0 STARLINK-32354
1 61932U 24207W   24325.91668981 -.00858826  22788-3 -25565-2 0  9994
2 61932  43.0022  94.4192 0001699 291.2018 254.1050 15.91499418  2551
Epoch: 2024-11-20T22:00Z
Definitive object data (Epoch: 2024-11-20T22:00:01.999Z)
Latitude-3.6856°
Longitude-112.05685°
Altitude298.718 km
Speed7.73 km/s
True Right ascension18h 33m 25s
True Declination-3° 39' 44"
Sunlit
Object was in daylight at TLE epoch
Visualization TLE readout
Latitude27.53186°
Longitude95.58464°
Altitude300.326 km
Speed7.732 km/s
Apparent Right ascension11h 27m 39s
Apparent Declination-8° 41' 47"
Sunlit
Object is in full shadow
Visualization observer readout
Local Sidereal Time03:29:01
Azimuth77.026° E
Elevation-28.177°
Doppler factor1
Orbital elements
Apogee altitude301.219 km
Perigee altitude298.95 km
Semi-major axis6,678.222 km
Eccentricity0.0001699
Inclination43.0022°
RAAN94.4192°
Arg. of periapsis291.2018°
True anomaly254.08628°
Mean anomaly254.105°
Eccentric anomaly254.09564°
Mean motion3.97697 °/min
BSTAR-0.0025565
Orbital period90.52 mins
Loading maneuver chart data...
Loading historical data...
Loading historical data...
Loading historical data...
Loading historical data...
Loading historical data...
Loading historical data...
Loading historical data...

STARLINK-32354 Visibility forecast

Observer location: undefined°, undefined

Span
Click to sort rows by Start time (UTC) header in descending order
Start Az.
Max El. time (UTC)
Max El. Az.
Max El.
End time (UTC)
End Az.
4 mins2024-11-21 12:31:28.969Z222.97° SW2024-11-21 12:33:28.969Z138.44° SSE33.521°2024-11-21 12:35:28.969Z82.991° E
|